Weather History for Lufkin, TX

Change the Weather History Date:

Monday, November 4, 2013

  Actual Average Record
Temperature  
Mean Temperature 61 °F 62 °F  
Max Temperature 73 °F 74 °F 89 °F (1948)
Min Temperature 49 °F 50 °F 23 °F (1991)
Degree Days  
Heating Degree Days 4 5  
Month to date heating degree days 24 19  
Since 1 July heating degree days 50 85  
Cooling Degree Days 0 2  
Month to date cooling degree days 0 8  
Year to date cooling degree days 2816 2552  
Growing Degree Days 10 (Base 50)    
Moisture  
Dew Point 53 °F    
Average Humidity 74    
Maximum Humidity 86    
Minimum Humidity 61    
Precipitation  
Precipitation 0.00 in 0.17 in 5.14 in (2002)
Month to date precipitation 0.00 0.68  
Year to date precipitation 36.52 40.18  
Snow  
Snow 0.00 in - - ()
Month to date snowfall 0.0  
Since 1 July snowfall 0.0  
Since 1 September snowfall 0.0  
Snow Depth 0.00 in    
Sea Level Pressure  
Sea Level Pressure 30.09 in    
Wind  
Wind Speed 8 mph (ESE)    
Max Wind Speed 13 mph    
Max Gust Speed 17 mph    
Visibility 10 miles    
Events      
T = Trace of Precipitation, MM = Missing Value Source: NWS Daily Summary

Daily Weather History Graph

Daily Weather History Graph

Search for Another Location

Airport:

Trip Planner

Search our weather history database for the weather conditions in past years. The results will help you decide how hot, cold, wet, or windy it might be!

Date:

Astronomy

Nov. 04, 2013 Rise Set
Actual Time 6:37 AM CST 5:27 PM CST
Civil Twilight 6:12 AM CST 5:52 PM CST
Nautical Twilight 5:43 AM CST 6:21 PM CST
Astronomical Twilight 5:14 AM CST 6:49 PM CST
Moon 7:44 AM CST (11/4) 6:37 PM CST (11/4)
Length of Visible Light 11h 40m
Length of Day
10h 50m
New Moon, 2% of the Moon is Illuminated
Nov 4
New Moon
Nov 9
First Quarter
Nov 17
Full
Nov 25
Last Quarter
Dec 2
New

Hourly Weather History & Observations

Time (CST) Temp. Dew Point Humidity Pressure Visibility Wind Dir Wind Speed Gust Speed Precip Events Conditions
12:53 AM 48.9 °F 44.1 °F 83% 30.09 in 10.0 mi ESE 6.9 mph - N/A   Clear
1:53 AM 51.1 °F 45.0 °F 80% 30.08 in 10.0 mi SE 6.9 mph - N/A   Clear
2:53 AM 52.0 °F 46.0 °F 80% 30.08 in 10.0 mi SE 5.8 mph - N/A   Clear
3:53 AM 52.0 °F 46.0 °F 80% 30.08 in 10.0 mi SE 8.1 mph - N/A   Partly Cloudy
4:53 AM 53.1 °F 46.9 °F 80% 30.08 in 10.0 mi ESE 6.9 mph - N/A   Partly Cloudy
5:53 AM 54.0 °F 46.9 °F 77% 30.09 in 10.0 mi ESE 8.1 mph - N/A   Mostly Cloudy
6:53 AM 54.0 °F 46.9 °F 77% 30.10 in 10.0 mi ESE 8.1 mph - N/A   Clear
7:53 AM 57.0 °F 48.0 °F 72% 30.12 in 10.0 mi ESE 10.4 mph - N/A   Clear
8:53 AM 59.0 °F 50.0 °F 72% 30.13 in 10.0 mi ESE 8.1 mph - N/A   Clear
9:53 AM 62.1 °F 51.1 °F 67% 30.15 in 10.0 mi ESE 6.9 mph - N/A   Partly Cloudy
10:53 AM 66.0 °F 53.1 °F 63% 30.14 in 10.0 mi ESE 12.7 mph - N/A   Mostly Cloudy
11:53 AM 66.9 °F 55.0 °F 66% 30.12 in 10.0 mi ESE 9.2 mph - N/A   Overcast
12:53 PM 69.1 °F 55.9 °F 63% 30.09 in 10.0 mi ESE 9.2 mph - N/A   Overcast
1:53 PM 71.1 °F 57.0 °F 61% 30.07 in 10.0 mi ESE 10.4 mph - N/A   Mostly Cloudy
2:53 PM 71.1 °F 59.0 °F 66% 30.06 in 10.0 mi East 8.1 mph - N/A   Overcast
3:53 PM 71.1 °F 57.9 °F 63% 30.05 in 10.0 mi ESE 8.1 mph - N/A   Overcast
4:53 PM 70.0 °F 59.0 °F 68% 30.06 in 10.0 mi East 6.9 mph - N/A   Overcast
5:53 PM 69.1 °F 59.0 °F 70% 30.06 in 10.0 mi East 9.2 mph - N/A   Overcast
6:53 PM 69.1 °F 57.9 °F 68% 30.07 in 10.0 mi ESE 9.2 mph - N/A   Overcast
7:53 PM 68.0 °F 59.0 °F 73% 30.08 in 10.0 mi ESE 6.9 mph - N/A   Overcast
8:53 PM 68.0 °F 59.0 °F 73% 30.07 in 10.0 mi ESE 9.2 mph - N/A   Overcast
9:53 PM 66.9 °F 59.0 °F 76% 30.09 in 10.0 mi ESE 6.9 mph - N/A   Overcast
10:53 PM 66.9 °F 59.0 °F 76% 30.09 in 10.0 mi ESE 8.1 mph - N/A   Overcast
11:53 PM 66.0 °F 59.0 °F 78% 30.08 in 10.0 mi ESE 10.4 mph - N/A   Overcast